TANYUSHA 1 (42911 NORAD) Tracking and Keplerian Element Data

This shows tracking and keplerian element data for the satellite.

Feedback or suggestion? Click here.




ElementValue
Catalog42911
NameTANYUSHA 1
Epoch Orbit7117
Epoch Day319.86141916
Epoch Year2018
RAAN312.7373
Inclination51.6363
Eccentricity0.0006887
Argument of Perigee59.8909
Mean Anonmoly9.3217
Mean Motion15.71867355
Decay Rate0.00028532
L11 42911U 98067NA 18319.86141916 .00028532 00000-0 21843-3 0 9996
L22 42911 51.6363 312.7373 0006887 59.8909 9.3217 15.71867355 71174

Live tracking and technical data element details for TANYUSHA 1 (NORAD 42911). TANYUSHA 1 can be tracked NOW for your location showing map with azimuth and elevation plus other details from your city location.

Track the satellite on the map from your city or location and see movement details for azimuth, elevation, latitude, longitude, range, height, and movement on the map or in text.







IsCatalogInMostPopularTable: catalog: 42911, numindb: 150
Update: records affected: 1



GetName: 42911 TANYUSHA 1

Hit Count: updated at: Fri, 16 Nov 2018 09:15:48 GMT